DMSP 5D-2 F13 DEB

Satellite information

Favourite Embed

Satellite Type and Status

DEBRISIN ORBIT

Key statistics

Satellite DMSP 5D-2 F13 DEB at a glance.

Uptime

11223

Days in orbit

Revolutions

≈ 14.2

Per day

Orbit

SSO

Sun Synchronous Orbit

Inclination

98.8

Latest

Satellite identification and parameters

Extended collection of information and parameters for DMSP 5D-2 F13 DEB.

Object identification

Identified? True

Debris? True

Object name: DMSP 5D-2 F13 DEB

International designator: 1995-015CZ

Object number (NORAD): 40513

Object ID (CCSDS): 40513

Country: UNITED STATES OF AMERICA (US)

Current information (Y/N): Y

RCS size: SMALL

Orbital parameters

Period: 101.245 minutes

Inclination: 98.7727 deg

SMA: 7195.727 km

Apoapsis: 821.973 km

Periapsis: 813.211 km

RAAN: 1.9915 deg

Eccentricy: 0.0006088

Argument of periapsis: 303.5126 deg

Mean anomaly: 56.5469 deg

Mean motion: 14.22298426 rev/day

Mean motion (dot): 0.00001729 rev/day2

B* drag term: 0.00079805 1/REarth

Two-line elements (TLE)

Creation date: Dec. 12, 2025, 7:16 a.m.

Reference frame: TEME

Reference center: EARTH

Epoch: Dec. 11, 2025, 11:53 p.m. UTC

TLE line 0: 0 DMSP 5D-2 F13 DEB

TLE line 1: 1 40513U 95015CZ 25345.99571535 .00001729 00000-0 79805-3 0 9997

TLE line 2: 2 40513 98.7727 1.9915 0006088 303.5126 56.5469 14.22298426554955

Live tracking on map

Real-time ground track for satellite DMSP 5D-2 F13 DEB.

In-orbit conjunctions

A list of the most updated potential collisions computed for object DMSP 5D-2 F13 DEB.

Target Orbit TCA Probability of collision Miss distance Type
PEGASUS R/B LEO 2025-11-19 07:53:36 0.001089738 73.0 (m) ROCKET BODY
DMSP 5D-2 F13 DEB SSO 2025-07-16 14:16:00 0.0001070511 406.0 (m) DEBRIS
CZ-4C R/B LEO 2024-11-03 16:18:13 0.001672456 93.0 (m) ROCKET BODY

Associated space launch

Military meteorological satellite

DMSP 5D-2 F13 DEB was lifted into orbit during the mission ‘Atlas E | DMSP-5D2 F13’, on board a Atlas E space rocket.

The launch took place on March 24, 1995, 2:05 p.m. from Space Launch Complex 3W.

For more information about the launch, click the button.

Launch to space Atlas E | DMSP-5D2 F13
Atlas E | DMSP-5D2 F13

Agency: N/A

Status: Launch Successful

Launch date: March 24, 1995, 2:05 p.m. UTC

Rocket: Atlas E

Launch pad: Space Launch Complex 3W

Location: Vandenberg SFB, CA, USA

...

Latest news about this satellite

There are no fresh news available about this satellite. Check back as we update our databases every day.


Newsletter sign-up

Weekly statistics, charts and insights to help you stay on top of the space industry.